Weather History for Salinas, CA

Change the Weather History Date:

Saturday, October 27, 2012

  Actual Average Record
Temperature  
Mean Temperature 67 °F 60 °F  
Max Temperature 84 °F 71 °F 94 °F (2003)
Min Temperature 49 °F 48 °F 34 °F (1931)
Degree Days  
Heating Degree Days 0 6  
Month to date heating degree days 72 113  
Since 1 July heating degree days 284 308  
Cooling Degree Days 2 0  
Month to date cooling degree days 54 23  
Year to date cooling degree days 79 128  
Growing Degree Days 16 (Base 50)    
Moisture  
Dew Point 48 °F    
Average Humidity 57    
Maximum Humidity 83    
Minimum Humidity 30    
Precipitation  
Precipitation 0.00 in 0.03 in 0.47 in (1987)
Month to date precipitation 0.18 0.46  
Year to date precipitation 7.30 9.38  
Since 1 July precipitation 0.18 0.66  
Sea Level Pressure  
Sea Level Pressure 30.04 in    
Wind  
Wind Speed 4 mph (WSW)    
Max Wind Speed 15 mph    
Max Gust Speed 17 mph    
Visibility 10 miles    
Events      
T = Trace of Precipitation, MM = Missing Value Source: NWS Daily Summary

Daily Weather History Graph

Daily Weather History Graph

Search for Another Location

Airport:

Trip Planner

Search our weather history database for the weather conditions in past years. The results will help you decide how hot, cold, wet, or windy it might be!

Date:

Astronomy

Oct. 27, 2012 Rise Set
Actual Time 7:25 AM PDT 6:14 PM PDT
Civil Twilight 6:59 AM PDT 6:40 PM PDT
Nautical Twilight 6:28 AM PDT 7:11 PM PDT
Astronomical Twilight 5:58 AM PDT 7:41 PM PDT
Moon 5:01 PM PDT (10/27) 5:27 AM PDT (10/27)
Length of Visible Light 11h 41m
Length of Day
10h 48m
Waxing Gibbous, 96% of the Moon is Illuminated
Oct 27
Waxing Gibbous
Oct 29
Full
Nov 6
Last Quarter
Nov 13
New
Nov 20
First Quarter

Hourly Weather History & Observations

Time (PDT) Temp. Dew Point Humidity Pressure Visibility Wind Dir Wind Speed Gust Speed Precip Events Conditions
12:53 AM 54.0 °F 45.0 °F 72% 30.10 in 10.0 mi Calm Calm - N/A   Clear
1:53 AM 54.0 °F 45.0 °F 72% 30.09 in 10.0 mi Calm Calm - N/A   Clear
2:53 AM 50.0 °F 43.0 °F 77% 30.09 in 10.0 mi Calm Calm - N/A   Clear
3:53 AM 51.1 °F 44.1 °F 77% 30.07 in 10.0 mi SE 3.5 mph - N/A   Clear
4:53 AM 50.0 °F 43.0 °F 77% 30.06 in 10.0 mi ESE 3.5 mph - N/A   Clear
5:53 AM 50.0 °F 43.0 °F 77% 30.08 in 10.0 mi ESE 3.5 mph - N/A   Clear
6:53 AM 50.0 °F 43.0 °F 77% 30.06 in 10.0 mi East 3.5 mph - N/A   Clear
7:53 AM 50.0 °F 41.0 °F 71% 30.08 in 10.0 mi ESE 4.6 mph - N/A   Clear
8:53 AM 54.0 °F 42.1 °F 64% 30.09 in 10.0 mi ESE 6.9 mph - N/A   Clear
9:53 AM 60.1 °F 43.0 °F 53% 30.09 in 10.0 mi ESE 4.6 mph - N/A   Clear
11:53 AM 73.9 °F 46.0 °F 37% 30.06 in 10.0 mi Calm Calm - N/A   Clear
12:53 PM 80.1 °F 46.0 °F 30% 30.03 in 10.0 mi West 5.8 mph - N/A   Clear
1:53 PM 82.9 °F 48.0 °F 29% 30.00 in 10.0 mi West 11.5 mph - N/A   Clear
2:53 PM 81.0 °F 51.1 °F 35% 29.97 in 10.0 mi WSW 11.5 mph - N/A   Clear
3:53 PM 73.9 °F 52.0 °F 46% 29.98 in 10.0 mi West 10.4 mph - N/A   Clear
4:53 PM 72.0 °F 54.0 °F 53% 29.98 in 10.0 mi WNW 8.1 mph - N/A   Clear
5:53 PM 66.9 °F 55.0 °F 66% 29.97 in 10.0 mi WNW 8.1 mph - N/A   Clear
6:53 PM 64.9 °F 55.0 °F 70% 29.98 in 10.0 mi NW 6.9 mph - N/A   Clear
7:53 PM 64.0 °F 54.0 °F 70% 29.99 in 10.0 mi Calm Calm - N/A   Clear
8:53 PM 60.1 °F 53.1 °F 78% 30.00 in 10.0 mi NNE 4.6 mph - N/A   Clear
9:53 PM 61.0 °F 53.1 °F 75% 30.01 in 10.0 mi West 4.6 mph - N/A   Clear
10:53 PM 61.0 °F 53.1 °F 75% 30.03 in 10.0 mi Calm Calm - N/A   Clear
11:53 PM 55.9 °F 50.0 °F 80% 30.02 in 9.0 mi Calm Calm - N/A   Clear